SCP
0 0 0 0 0 0 -0 0 0 0 0 0 0 0 0 0 0 0 0 0 0 0 0 0 1 1 1 1 1 1 0 0 0 0 0 0 0 0 1 1 1 0 0 0 0 0 0 0 0
0 0 0 0 0 -0 -0 0 0 0 0 0 0 0 0 0 0 0 0 0 0 0 0 0 1 1 1 1 1 1 1 1 1 1 0 0 0 0 0 0 0 0 0 0 0 0 0 0 0
0 0 0 0 0 -0 -0 0 0 0 0 0 0 0 0 0 0 0 0 0 0 0 0 1 1 1 1 1 0 0 1 1 1 1 1 0 0 0 0 0 0 0 0 0 0 0 0 0 0
0 0 0 0 0 0 0 0 0 0 0 0 0 0 0 0 0 0 0 0 0 0 0 1 1 1 1 1 0 0 1 1 1 0 1 1 1 1 0 0 0 0 0 0 0 0 0 0 0
0 0 0 0 0 0 0 0 0 0 0 0 0 0 1 1 1 0 0 0 0 0 0 1 1 1 1 1 0 0 1 1 1 0 1 1 1 1 0 0 0 0 0 0 0 0 0 0 0
0 0 0 0 0 0 0 0 0 0 0 0 0 1 1 1 1 1 0 0 0 0 0 0 1 1 1 1 1 1 1 1 1 1 1 1 1 1 0 0 0 0 0 0 0 0 0 0 0
0 0 0 0 0 0 0 0 0 0 0 0 0 1 1 1 1 1 1 1 0 0 0 0 0 0 1 1 1 1 1 1 1 1 1 1 1 0 0 0 0 0 0 0 0 0 0 0 0
0 0 0 0 0 0 0 0 0 0 0 0 0 1 1 1 1 1 1 1 1 0 0 0 0 0 0 0 1 1 1 1 1 1 1 1 0 0 0 0 0 0 0 0 0 0 0 0 0
0 0 0 0 0 0 0 0 0 0 0 0 0 0 1 1 1 1 1 1 0 0 0 0 0 0 0 0 0 1 1 1 1 1 1 1 1 0 0 0 0 0 0 0 0 0 0 0 0
0 0 0 0 0 0 0 0 0 0 0 0 0 0 0 1 1 1 1 0 0 0 0 0 0 0 0 0 0 0 0 0 0 1 1 1 1 1 0 0 0 0 0 0 0 0 0 0 0
0 0 0 0 0 0 0 0 0 0 0 0 0 0 0 0 0 0 0 0 0 0 0 0 0 0 0 0 0 0 0 0 0 0 1 1 1 1 1 0 0 0 0 0 0 0 0 0 0
0 0 0 0 0 0 0 0 0 0 0 0 0 0 0 0 0 0 0 0 0 0 0 0 0 0 0 0 0 0 0 0 0 0 0 1 1 1 1 1 1 0 0 0 0 0 0 0 0
0 0 0 0 0 0 0 0 0 0 0 0 0 0 0 0 0 0 0 0 0 0 0 0 0 0 0 0 0 0 0 0 0 0 0 0 0 1 1 1 1 0 0 0 0 0 0 0 0
0 0 0 0 0 0 0 0 0 0 0 0 0 0 0 0 0 0 0 0 0 0 0 0 0 0 0 0 0 0 0 0 0 0 0 0 0 0 0 0 0 0 0 0 0 0 0 0 0
0 0 0 0 0 0 0 0 0 0 0 0 0 0 0 0 0 0 0 0 0 0 0 0 0 0 0 0 0 0 0 0 0 0 0 0 0 0 0 0 0 0 0 0 0 0 0 0 0
0 0 0 0 0 0 0 0 0 0 0 0 0 0 0 0 0 0 1 1 0 0 0 0 0 0 0 0 0 0 0 0 0 0 0 0 0 0 0 0 0 0 0 0 0 0 0 0 0
0 0 0 0 0 0 0 0 0 0 0 0 0 0 0 1 1 1 1 1 1 0 0 0 0 0 0 0 0 0 0 0 0 0 0 0 0 0 0 0 0 0 0 0 0 0 0 0 0
0 0 0 0 0 0 0 0 0 0 0 0 0 0 0 1 1 1 1 1 1 0 0 0 0 0 0 0 0 0 0 0 0 0 0 0 0 0 0 0 0 0 0 0 0 0 0 0 0
0 0 0 0 0 0 0 0 0 0 0 0 0 0 0 0 1 1 1 1 1 0 0 0 0 0 0 0 0 0 0 0 0 0 0 0 0 0 0 0 0 0 0 0 0 0 0 0 0
0 0 0 0 0 0 0 0 0 0 0 0 0 0 0 0 1 1 1 1 1 0 0 0 0 0 0 0 0 0 0 0 0 0 0 0 0 0 0 0 0 0 0 0 0 0 0 0 0
0 0 0 0 0 0 0 0 0 0 0 0 0 0 0 1 1 1 1 1 1 0 0 0 0 0 0 0 0 0 0 0 0 0 0 0 0 0 0 0 0 0 0 0 0 0 0 0 0
0 0 0 0 0 0 0 0 0 0 0 0 0 0 0 1 1 1 1 1 0 0 0 0 0 0 0 0 0 0 0 0 0 0 0 0 0 0 0 0 0 0 0 0 0 0 0 0 0
0 0 0 0 0 0 0 0 0 0 0 0 0 0 0 1 1 0 0 0 0 0 0 0 0 0 0 0 0 0 0 0 0 0 0 0 0 0 0 0 0 0 0 0 0 0 0 0 0
0 0 0 0 0 0 0 0 0 0 0 0 0 0 0 0 0 0 0 0 0 0 0 0 0 0 0 0 0 0 0 0 0 0 0 0 0 0 0 0 0 0 0 0 0 0 0 0 0
0 0 0 0 0 0 0 0 0 0 0 0 0 0 0 0 0 0 0 0 0 0 0 0 0 0 0 0 0 0 0 0 0 0 0 0 0 0 0 0 0 0 0 0 0 0 0 0 0
0 0 0 0 0 0 0 0 0 0 0 0 0 0 0 0 0 0 0 0 0 0 0 0 0 0 0 0 0 0 0 0 0 0 0 0 0 0 0 0 0 0 0 0 0 0 0 0 0
0 0 0 0 0 0 0 0 0 0 0 0 0 0 0 0 0 0 0 0 0 0 0 0 0 0 0 0 0 0 0 0 0 0 0 0 0 0 0 0 0 0 0 0 0 0 0 0 0
0 0 0 0 0 0 0 0 0 0 0 0 0 0 0 0 0 0 0 0 0 0 0 0 0 0 0 0 0 0 0 0 0 0 0 0 0 0 0 0 0 0 0 0 0 0 0 0 0
0 0 0 0 0 0 0 0 0 0 0 0 0 0 0 0 0 0 0 0 0 0 0 0 0 0 0 0 0 0 0 0 0 0 0 0 0 0 0 0 0 0 0 0 0 0 0 0 0
0 0 0 0 0 0 0 0 0 0 0 0 0 0 0 0 0 0 0 0 0 0 0 0 0 0 0 0 0 0 0 0 0 0 0 0 0 0 0 0 0 0 0 0 0 0 0 0 0
Wind_Speed
2 2 1 2 4 4 2 3 1 1 2 3 5 8 9 5 4 4 2 7 10 10 8 10 13 13 13 12 12 12 12 12 12 12 11 11 11 11 11 11 10 10 9 9 8 8 7 6 6
1 2 2 4 4 1 4 3 2 1 3 5 6 8 8 6 6 7 4 7 11 10 7 9 13 13 13 12 12 12 12 12 12 11 11 11 10 10 10 10 9 9 8 8 7 7 6 5 5
2 1 3 3 2 3 4 3 2 2 3 4 4 5 5 6 7 6 6 11 10 9 7 10 14 13 12 12 12 11 11 11 11 11 10 10 9 9 9 9 9 8 8 7 7 6 5 4 3
1 3 3 3 3 6 4 4 2 2 3 3 6 5 4 3 5 8 11 12 11 8 7 10 14 13 12 12 11 11 11 11 10 10 10 9 9 8 8 8 8 7 7 7 7 6 5 4 3
3 4 3 2 5 4 3 3 2 3 2 4 7 6 3 3 9 13 12 11 11 8 6 8 13 12 12 12 11 10 10 10 9 9 9 9 9 8 8 7 7 6 6 6 6 5 5 5 4
3 3 2 2 5 4 2 1 4 6 3 3 6 6 2 4 10 11 12 10 10 9 7 6 11 12 11 11 10 9 9 8 8 8 8 8 8 8 7 7 6 6 6 5 5 5 5 5 5
3 2 2 3 4 4 3 1 4 4 3 1 4 6 3 3 7 11 11 10 8 8 7 5 5 7 10 10 9 9 8 8 8 8 7 8 8 8 7 7 7 6 6 5 5 5 5 5 6
5 2 2 2 2 4 2 2 3 5 3 2 3 7 6 5 6 8 10 9 8 7 6 5 4 4 4 5 8 8 8 7 7 8 8 7 7 7 7 7 6 6 6 6 6 6 6 6 6
3 3 3 5 3 4 2 2 2 4 5 3 3 4 8 10 9 9 9 8 7 7 5 5 5 4 4 4 5 5 6 6 6 6 7 6 3 3 4 6 6 7 7 6 6 6 6 6 6
4 4 7 6 5 4 2 2 2 3 4 3 4 5 9 9 9 10 10 8 7 6 5 5 5 5 4 3 2 2 2 2 2 2 3 2 2 3 4 6 7 7 7 6 6 7 6 5 2
4 6 6 4 4 3 2 1 2 5 1 4 8 9 11 9 7 7 8 8 7 7 6 5 5 5 4 2 2 1 1 1 2 2 3 2 2 2 3 2 3 4 4 3 4 4 2 2 2
2 5 4 4 4 1 2 1 4 3 4 7 10 11 10 9 6 6 7 7 6 5 5 4 4 4 3 2 2 2 2 2 2 2 3 2 2 2 2 2 2 2 2 2 2 1 2 3 3
2 5 4 3 3 3 2 2 5 3 5 9 11 11 9 8 6 5 6 6 6 5 5 5 4 4 3 2 1 2 2 2 3 2 2 3 2 2 2 2 2 2 2 2 2 2 3 3 3
4 4 4 3 3 1 3 1 4 3 7 10 10 8 7 7 6 5 5 5 5 5 4 4 4 3 3 2 1 2 2 2 2 2 3 3 2 2 2 2 2 2 2 2 2 2 2 2 2
2 4 6 3 2 2 4 1 2 5 8 9 9 8 7 6 6 7 7 6 6 5 4 3 4 3 2 2 2 2 2 2 2 2 3 3 3 3 2 2 2 2 2 2 1 1 1 1 1
3 3 3 6 2 2 5 2 3 5 9 8 8 8 7 6 6 6 7 6 6 5 4 3 3 3 2 2 2 1 1 2 2 2 2 3 3 3 3 2 2 2 1 1 1 1 1 1 1
4 1 3 6 3 0 3 3 3 4 8 8 7 6 6 6 5 5 7 7 6 6 5 3 2 3 3 2 1 0 0 1 1 1 1 2 3 3 3 2 2 2 1 1 1 1 1 1 1
5 3 3 5 3 1 1 3 3 3 6 7 5 4 5 5 5 6 6 6 5 4 4 3 2 2 1 1 1 1 1 0 0 0 1 2 2 2 2 2 2 2 2 1 1 1 0 1 1
5 4 5 7 4 1 1 2 3 3 3 4 4 4 5 4 4 5 6 6 6 4 3 3 3 2 1 1 1 1 0 0 0 0 1 1 2 2 2 1 1 2 2 2 1 1 0 0 0
5 4 5 5 3 1 1 1 2 3 4 5 6 5 5 4 4 5 5 5 5 5 4 4 3 3 2 1 1 1 1 0 0 0 1 0 1 1 2 1 1 2 2 2 1 1 1 1 1
6 6 7 5 2 2 2 4 3 1 1 2 3 5 5 7 7 6 5 4 5 5 4 4 3 3 2 1 1 1 2 2 2 1 1 1 0 1 2 2 2 1 2 1 1 1 2 1 1
7 8 6 4 2 2 1 2 5 1 0 1 2 3 4 6 6 6 5 4 4 4 3 3 3 3 2 2 3 3 2 0 1 1 1 1 1 1 1 2 2 2 1 1 1 1 1 2 1
7 5 4 4 3 1 2 1 6 1 2 3 3 4 4 6 7 6 5 5 4 4 4 3 3 2 2 2 3 2 1 1 1 1 1 1 1 1 1 2 1 1 1 1 1 0 1 1 2
3 2 4 4 4 1 3 3 5 4 5 4 4 4 5 6 6 5 4 4 3 3 3 3 3 2 2 2 2 2 2 1 0 1 1 1 1 1 1 1 1 1 1 1 1 1 1 1 1
2 4 3 4 3 4 2 2 7 6 5 6 6 6 7 7 6 5 5 4 3 3 3 2 3 2 2 2 2 2 2 2 1 1 1 1 0 0 0 0 1 1 1 1 1 1 1 1 1
3 7 6 4 4 3 2 3 6 4 3 4 5 6 7 6 6 5 5 5 4 3 2 2 3 2 2 2 1 1 1 1 1 1 1 1 1 1 1 1 1 0 0 0 0 0 1 0 1
3 3 5 6 1 0 2 3 4 1 2 4 5 5 6 7 7 6 5 5 4 4 2 3 3 2 1 2 2 1 1 1 1 0 1 0 1 1 1 1 1 0 0 0 0 0 1 1 2
4 5 5 5 3 2 3 3 4 3 2 3 5 5 5 5 6 6 5 5 4 3 3 3 3 2 2 1 1 1 1 1 1 1 1 1 0 1 1 1 1 1 0 0 0 1 1 1 2
1 2 4 4 5 5 3 5 4 6 6 6 6 6 6 5 6 6 5 4 4 3 3 3 3 2 2 2 1 1 1 1 1 1 0 0 0 1 1 1 1 0 0 0 0 1 1 1 2
3 3 5 4 3 3 3 6 3 5 4 5 5 5 5 5 5 5 5 5 4 4 3 3 3 3 2 2 2 1 1 1 1 0 0 1 1 1 1 1 0 0 0 1 1 2 1 1 1
Wind_Direction
234 215 143 68 51 44 277 248 225 344 27 52 86 93 94 84 105 141 175 137 134 143 149 146 140 136 133 131 130 129 127 124 122 122 123 122 121 123 125 126 129 134 138 140 140 140 141 140 139
216 198 75 62 79 32 277 238 195 176 150 114 89 94 93 85 94 117 134 144 140 143 144 145 142 137 135 133 133 132 131 129 126 126 127 127 129 130 132 135 138 140 143 145 146 148 149 149 149
239 189 93 76 113 195 241 247 169 128 112 115 99 76 90 119 123 135 147 139 134 139 143 148 143 139 137 137 135 136 136 136 135 135 133 131 133 137 140 144 147 148 151 154 153 154 154 156 162
84 51 52 73 252 241 224 247 185 113 79 83 102 78 71 107 134 137 136 135 131 136 140 145 143 141 139 137 138 139 140 142 142 143 142 141 141 141 142 147 152 155 159 162 162 163 169 176 185
79 80 51 324 264 259 254 248 200 102 70 95 97 92 56 50 113 125 130 129 131 132 138 146 143 142 143 145 146 147 146 146 149 150 150 151 151 151 152 155 158 162 168 171 172 177 189 200 213
52 77 86 277 284 293 299 168 99 97 95 100 99 109 107 114 124 133 131 128 134 137 134 138 144 143 146 147 149 150 151 152 153 154 156 159 160 162 166 167 171 177 179 180 181 190 202 210 225
127 115 204 250 302 314 311 40 99 116 103 130 128 113 127 138 136 134 129 126 126 128 127 126 135 140 145 147 151 155 157 159 160 160 162 168 171 176 181 182 187 189 191 191 199 206 211 219 231
159 114 314 304 296 291 298 55 112 111 100 94 109 133 161 173 133 123 120 120 120 123 132 136 132 132 143 156 160 165 163 165 168 172 176 179 183 189 195 197 201 202 203 206 212 218 225 230 239
135 91 251 243 216 259 285 82 73 90 94 49 44 128 154 143 127 120 114 116 126 138 150 144 146 148 153 161 168 167 170 178 179 182 189 190 193 198 206 211 212 216 216 219 224 230 238 243 246
134 168 230 225 202 217 239 161 153 91 65 53 58 80 118 130 132 135 138 143 144 151 161 154 154 153 156 166 158 161 162 177 187 185 195 193 192 209 213 225 221 224 225 227 233 239 243 246 249
184 201 234 245 216 183 192 183 139 124 122 170 151 139 138 136 131 143 148 149 153 159 161 161 162 163 162 158 156 165 168 180 198 201 201 197 193 215 223 216 237 236 234 230 238 244 240 235 237
239 253 236 233 233 195 190 147 93 102 167 151 141 137 136 132 129 136 145 144 145 150 160 167 168 161 162 155 166 171 176 188 203 214 207 189 191 208 208 198 205 209 218 221 224 227 236 240 239
257 262 262 242 232 212 138 112 117 114 135 129 125 124 136 137 134 141 147 144 139 146 162 165 157 149 153 148 189 177 189 196 205 201 199 183 184 198 197 197 197 206 205 206 209 215 226 231 235
256 276 292 272 257 221 120 150 108 163 146 131 129 135 146 138 136 137 137 144 148 148 150 154 144 149 149 155 199 201 195 195 193 198 198 185 184 188 182 185 196 210 208 211 206 209 214 222 233
294 328 325 302 277 240 114 78 162 169 140 135 141 146 145 141 145 155 157 157 156 150 145 147 140 140 149 169 209 199 193 186 195 203 198 183 184 182 175 175 194 214 205 195 188 197 195 223 249
1 12 325 302 296 249 116 213 231 158 142 146 151 151 151 156 159 161 154 152 152 148 142 149 142 143 170 205 214 204 185 182 191 191 192 188 186 181 171 181 197 207 179 158 165 167 179 252 266
4 326 281 300 303 278 123 210 229 176 150 154 158 157 151 146 158 160 157 153 150 150 147 143 125 147 188 200 187 146 155 174 186 176 191 198 193 183 174 185 194 181 154 154 188 162 169 204 253
252 252 279 278 283 59 138 213 203 197 154 157 156 155 150 154 170 157 150 148 141 141 140 134 118 145 172 129 80 52 47 63 98 160 209 189 201 193 175 180 190 165 143 141 170 178 197 194 224
229 244 269 270 259 42 237 234 217 206 151 148 154 161 164 167 153 138 138 135 130 132 133 141 140 151 114 80 96 85 334 327 356 288 245 194 190 182 160 141 172 154 155 170 172 158 167 262 48
230 237 261 277 265 144 151 271 245 188 181 167 162 168 171 150 132 132 132 134 141 150 153 150 157 155 150 174 172 169 184 220 238 317 353 319 158 152 147 138 159 159 143 132 148 129 143 266 99
249 219 228 225 278 14 62 344 311 326 134 149 159 164 161 158 152 148 149 152 149 154 160 157 159 150 150 144 97 66 43 26 15 6 351 330 121 145 135 142 144 148 139 158 184 159 152 217 279
253 235 211 193 126 287 127 264 285 256 6 189 179 147 152 151 145 150 154 157 162 161 143 136 142 137 134 120 111 115 106 55 265 260 273 312 12 83 125 138 144 151 150 167 211 168 175 173 245
227 232 194 168 139 359 360 142 279 249 229 236 198 159 152 150 147 154 160 161 155 146 143 143 139 135 137 125 126 121 123 218 281 333 349 343 343 7 117 140 141 149 159 171 190 184 184 183 199
206 58 33 46 71 359 253 181 264 236 214 207 186 164 155 156 154 157 146 130 135 147 148 142 132 138 123 109 116 129 145 152 104 354 332 323 329 344 22 110 131 159 171 187 201 181 179 210 213
111 93 32 1 11 253 244 182 246 241 211 186 180 177 163 157 158 153 146 146 150 147 152 145 137 145 148 148 151 152 156 150 174 203 211 213 255 316 295 105 134 155 200 200 181 165 210 222 230
191 147 158 193 221 261 299 235 257 258 228 165 158 155 151 155 158 157 163 160 156 154 156 154 156 164 172 161 158 157 153 137 177 206 196 195 205 220 224 149 126 135 158 138 125 166 226 247 246
156 182 166 139 136 210 270 276 300 318 109 124 134 142 160 163 161 163 164 158 158 157 158 151 149 136 138 132 128 119 119 107 107 102 113 143 211 179 139 106 100 125 159 186 188 239 258 252 253
152 157 100 110 140 238 267 256 245 240 199 153 153 156 159 163 164 163 165 164 169 171 168 152 145 144 129 123 145 127 128 116 98 86 84 80 106 106 106 96 97 107 138 163 80 295 276 273 280
90 81 109 125 156 164 226 264 239 193 183 177 183 170 161 161 169 167 167 168 163 159 146 141 143 134 130 130 129 131 145 140 111 88 92 145 122 129 133 150 127 125 127 291 296 276 281 280 294
151 156 140 144 216 170 169 262 288 183 173 167 168 159 156 157 164 164 159 154 151 154 154 152 152 154 171 169 154 167 178 157 142 188 231 167 152 163 172 160 126 187 256 264 240 261 258 233 266